www.pogodaiklimat.ru
Время
(UTC), дата
01 10.02
02 10.02
03 10.02
04 10.02
05 10.02
06 10.02
07 10.02
08 10.02
09 10.02
10 10.02
11 10.02
12 10.02
13 10.02
14 10.02
15 10.02
16 10.02
17 10.02
18 10.02
19 10.02
20 10.02
21 10.02
22 10.02
23 10.02
00 11.02
01 11.02
02 11.02
03 11.02
04 11.02
05 11.02
06 11.02
07 11.02
08 11.02
09 11.02
10 11.02
11 11.02
12 11.02
13 11.02
14 11.02
15 11.02
16 11.02
17 11.02
18 11.02
19 11.02
20 11.02
21 11.02
22 11.02
23 11.02
00 12.02
01 12.02
02 12.02
03 12.02
04 12.02
05 12.02
06 12.02
07 12.02
08 12.02
09 12.02
10 12.02
11 12.02
12 12.02
13 12.02
14 12.02
15 12.02
16 12.02
17 12.02
18 12.02
19 12.02
20 12.02
21 12.02
22 12.02
23 12.02
00 13.02
01 13.02
02 13.02
03 13.02
04 13.02
05 13.02
06 13.02
07 13.02
08 13.02
09 13.02
10 13.02
11 13.02
12 13.02
13 13.02
14 13.02
15 13.02
16 13.02
17 13.02
18 13.02
19 13.02
20 13.02
21 13.02
22 13.02
23 13.02
00 14.02
01 14.02
02 14.02
03 14.02
04 14.02
05 14.02
06 14.02
07 14.02
08 14.02
09 14.02
10 14.02
11 14.02
12 14.02
13 14.02
14 14.02
15 14.02
16 14.02
17 14.02
18 14.02
19 14.02
20 14.02
21 14.02
22 14.02
23 14.02
00 15.02
01 15.02
02 15.02
03 15.02
04 15.02
05 15.02
06 15.02
07 15.02
08 15.02
09 15.02
10 15.02
11 15.02
12 15.02
13 15.02
14 15.02
15 15.02
16 15.02
17 15.02
18 15.02
19 15.02
20 15.02
21 15.02
22 15.02
23 15.02
00 16.02
01 16.02
02 16.02
03 16.02
04 16.02
05 16.02
06 16.02
07 16.02
08 16.02
09 16.02
10 16.02
11 16.02
12 16.02
13 16.02
14 16.02
15 16.02
16 16.02
17 16.02
18 16.02
19 16.02
20 16.02
21 16.02
22 16.02
23 16.02
Ветер
(напр.,м/с)
Видим. Явления Облачность Т
(С)
Тd
(С)
f
(%)
Тe
(С)
Тes
(С)
Комфортность P
(гПа)
Po
(гПа)
Тmin
(С)
Tmax
(С)
R
(мм)
R24
(мм)
S
(см)
ЮЗ 13 45 км 9/1 1500 м
[Sc Ac As]
+13.5 +3.2 50 +10 +10 тепло 992.7 965.7
ЮЗ 12 50 км 4/3 1440 м
[Sc Ac trans]
+13.1 +3.3 51 +10 +10 тепло 991.0 964.0
ЮЗ 14 50 км 1/1 1500 м
[Sc]
+13.4 +3.4 51 +10 +10 тепло 989.1 962.2
ЮЗ 13 30 км слаб. дождь 10/9 1170 м
[Sc]
+12.4 +5.1 61 +9 +9 тепло 988.8 961.9
З 9 35 км слаб. ливневой дождь, в посл. час гроза 10/1 800 м
[Cu hum As op]
+7.4 +4.6 82 +2 +2 тепло 991.7 964.2
ЮЗ 8 40 км в посл. час дождь {гроза, ливн. осадки} 10/5 1000 м
[Sc As op]
+7.4 +4.1 80 +2 +2 тепло 991.1 963.6 +5.7 +13.5 5
ЮЗ 8 40 км 9/5 1200 м
[Sc Ac As]
+8.2 +3.7 73 +4 +4 тепло 990.8 963.4
ЮЗ 9 45 км 10/5 1350 м
[Cu Sc Ac As]
+8.5 +3.6 71 +4 +4 тепло 992.3 964.9
ЮЗ 8 55 км 9/5 1000 м
[Cu Sc As op Ci fib]
+9.2 +3.4 67 +5 +5 тепло 992.4 965.0
ЮЗ 9 35 км слаб. дождь 9/9 900 м
[Sc]
+9.4 +3.7 68 +5 +5 тепло 992.4 965.1
З 13 3000 м слаб. ливневой дождь 10/9 800 м
[Cb calv]
+5.0 +2.9 86 -2 -2 тепло 994.1 966.3
З 13 35 км в посл. час ливневой дождь 9/6 900 м
[Cu med, cong Ac trans]
+7.6 +1.9 67 +2 +2 по сезону 995.2 967.6 0.8
З 11 65 км 9/9 960 м
[Cu med, cong]
+7.1 +1.4 67 +2 +2 тепло 996.7 969.0
З 13 50 км в посл. час ливневой дождь 9/4 1020 м
[Cu med, cong As op Cs]
+6.3 +0.3 65 0 0 тепло 997.4 969.6
З 11 50 км {ливн. осадки} 6/1 1500 м
[Sc Ac As Ci fib]
+5.9 -0.3 64 -0 -0 по сезону 998.7 970.8 0.0
З 12 25 км 9/6 1200 м
[Cb calv As op]
+6.6 -0.6 60 +1 +1 тепло 999.9 972.1
З 10 20 км слаб. ливневой дождь 9/9 300 м
[Cb calv]
+3.9 +0.2 77 -3 -3 тепло 1001.1 973.0
З 8 35 км в посл. час ливневой дождь 4/1 300 м
[Cu med, cong Ac As]
+3.2 +0.1 80 -3 -3 по сезону 1001.2 973.0 +2.6 +9.6 1
ЮЗ 5 40 км слаб. дождь 9/9 1300 м
[Cu Sc]
+3.1 +0.7 84 -2 -2 по сезону 1000.9 972.7
Ю 5 40 км в посл. час дождь 9/3 2000 м
[Sc As op]
+3.1 +0.6 84 -2 -2 тепло 999.4 971.2
Ю 5 40 км {дождь} 10/0
[Ac As]
+4.5 +0.6 76 -0 -0 по сезону 997.6 969.6 0.0
ЮЗ 6 35 км в посл. час дождь 10/8 1050 м
[Sc Ac As]
+5.6 +0.8 71 +1 +1 тепло 995.6 967.8
ЮЗ 10 35 км слаб. дождь 9/9 1000 м
[Sc]
+6.5 +1.1 68 +1 +1 тепло 994.4 966.7
ЮЗ 6 25 км слаб. дождь 10/4 300 м
[Cu Sc As op]
+5.2 +2.0 80 0 0 по сезону 993.6 965.8 0.2
ЮЗ 9 40 км в посл. час дождь 10/5 870 м
[Sc As op]
+5.9 +1.1 71 0 0 тепло 992.7 965.0
З 11 25 км слаб. дождь 10/4 300 м
[Sc As op]
+5.3 +1.7 78 -1 -1 тепло 992.6 964.9
З 12 40 км в посл. час дождь 10/9 800 м
[Cu Sc]
+5.2 +0.4 71 -1 -1 по сезону 993.6 965.8 0.1
З 8 40 км в посл. час дождь 10/9 480 м
[Cu Sc]
+3.7 +0.9 82 -3 -3 тепло 995.8 967.8
З 12 20 км гроза без осадков 9/9 750 м
[Cb cap]
+4.2 -1.7 65 -3 -3 тепло 996.5 968.5
З 10 55 км в посл. час ливневой снег {гроза, дождь} 9/9 600 м
[Cu Sc]
+2.4 -1.1 78 -5 -5 по сезону 998.9 970.7 +2.0 +6.5 0.3
З 11 55 км в посл. час ливневой дождь 8/6 960 м
[Cu med, cong Ac trans Ci fib]
+3.4 -2.3 66 -4 -4 тепло 999.8 971.6
З 8 50 км 9/9 1320 м
[Cu Sc]
+3.7 -2.3 65 -2 -2 тепло 999.9 971.8
З 12 40 км {ливн. осадки} 9/6 1500 м
[Sc Ac trans]
+4.6 -3.7 55 -2 -2 по сезону 1000.8 972.7 0.0
З 11 45 км 10/9 1500 м
[Sc]
+4.7 -3.5 55 -2 -2 тепло 1001.4 973.3
З 13 35 км 9/9 1470 м
[Sc]
+5.4 -3.8 51 -1 -1 тепло 1001.2 973.2
З 12 35 км {ливн. осадки} 9/9 840 м
[Cu Sc]
+5.7 -3.9 50 -0 -0 по сезону 1000.9 972.9 0.0
З 14 35 км 5/5 900 м
[Cu Sc]
+6.8 -3.9 46 +1 +1 тепло 1000.5 972.7
З 14 35 км 6/4 1260 м
[Cu med, cong Ac trans Ci sp]
+6.0 -3.3 51 -0 -0 тепло 1001.2 973.3
З 9 40 км 8/3 600 м
[Cu med, cong Ci sp]
+4.7 -2.5 60 -1 -1 по сезону 1001.5 973.4
З 9 15 км в посл. час крупа 8/5 600 м
[Cb cap Ac trans Ci sp]
+2.3 -1.4 77 -5 -5 по сезону 1002.6 974.3
З 9 30 км в посл. час ливневой дождь 9/9 1050 м
[Cb calv]
+2.0 -0.6 83 -5 -5 тепло 1003.8 975.4
ЮЗ 6 30 км слаб. ливневой снег 9/6 1000 м
[Cb calv As op]
+2.3 -1.2 78 -4 -4 по сезону 1004.4 976.0 +0.7 +7.0 0.1
З 7 14 км слаб. ливневой снег 9/5 450 м
[Cb cap As op]
+1.7 -0.9 83 -5 -5 по сезону 1005.6 977.1
ЮЗ 6 40 км в посл. час ливневой снег 9/9 1260 м
[Sc]
+2.5 -2.1 72 -3 -3 тепло 1005.7 977.3
ЮЗ 8 45 км {ливн. осадки} 5/5 1500 м
[Sc]
+2.9 -2.7 67 -3 -3 по сезону 1006.1 977.7 0.0
ЮЗ 7 45 км 6/4 1410 м
[Sc As trans]
+2.6 -3.1 66 -3 -3 тепло 1006.3 977.9
З 8 45 км 8/5 1230 м
[Sc As trans]
+2.5 -3.1 67 -4 -4 тепло 1006.9 978.4
З 8 45 км {ливн. осадки} 9/9 1000 м
[Sc]
+2.8 -2.8 67 -3 -3 по сезону 1007.6 979.2 0.0
З 8 45 км 9/9 900 м
[Cu Sc]
+2.5 -3.1 67 -4 -4 тепло 1008.0 979.5
ЮЗ 7 45 км 9/9 1050 м
[Cu Sc]
+2.8 -3.3 64 -3 -3 тепло 1008.3 979.8
З 8 45 км слаб. ливневой снег 10/10 1050 м
[Cu Sc]
+2.8 -3.1 65 -3 -3 по сезону 1008.7 980.2 0.0
ЮЗ 7 45 км в посл. час ливневой снег 10/10 1170 м
[Cu Sc]
+2.8 -3.1 65 -3 -3 тепло 1008.9 980.4
ЮЗ 7 40 км слаб. ливневой снег 10/10 1080 м
[Cu Sc]
+2.8 -2.9 66 -3 -3 тепло 1009.3 980.8
ЮЗ 8 40 км в посл. час ливневой снег 10/9 1000 м
[Cu Sc]
+2.7 -3.2 65 -4 -4 по сезону 1009.5 981.0 +1.4 +3.3 0.0
ЮЗ 8 40 км 8/8 1350 м
[Sc]
+2.6 -3.7 63 -4 -4 тепло 1010.1 981.6
ЮЗ 9 40 км слаб. ливневой снег 9/9 900 м
[Cu med, cong]
+3.0 -3.2 64 -3 -3 тепло 1010.3 981.8
З 9 40 км в посл. час ливневой снег 8/8 1000 м
[Cu Sc]
+3.6 -3.0 62 -3 -3 по сезону 1010.7 982.3 0.0
З 8 40 км в посл. час ливневой снег 9/9 1140 м
[Cu Sc]
+4.1 -2.7 61 -2 -2 тепло 1011.0 982.6
З 9 45 км в посл. час ливневой дождь 9/9 1000 м
[Cu Sc]
+4.5 -2.3 61 -1 -1 тепло 1011.3 982.9
З 7 30 км слаб. ливневой снег 10/9 600 м
[Cb calv]
+4.6 -2.9 58 -1 -0 по сезону 1011.2 982.8 0.0
З 7 30 км в посл. час крупа {ливн. осадки} 8/8 450 м
[Cb calv]
+3.2 -1.1 73 -3 -3 по сезону 1011.6 983.1
З 9 40 км в посл. час ливневой снег 6/6 900 м
[Cb calv]
+4.9 -2.6 58 -1 -1 тепло 1011.3 983.0
З 8 25 км слаб. ливневой дождь со снегом 9/9 450 м
[Cb calv]
+4.2 -2.9 60 -2 -2 по сезону 1011.9 983.5 0.3
З 7 50 км в посл. час ливневой снег 6/6 600 м
[Cb calv]
+4.4 -3.0 59 -1 -1 тепло 1012.4 984.0
З 6 50 км 6/6 1380 м
[Cu Sc]
+3.5 -2.2 66 -2 -2 тепло 1013.3 984.8
З 6 50 км в посл. час ливневой снег 3/3 1500 м
[Sc diur, vesp]
+3.8 -3.5 59 -1 -1 по сезону 1014.0 985.5 +2.5 +5.2 0.3
З 7 50 км 6/6 1500 м
[Sc]
+3.7 -3.7 58 -2 -2 тепло 1014.7 986.1
З 7 50 км 3/3 2000 м
[Sc]
+3.6 -3.9 58 -2 -2 тепло 1015.0 986.4
ЮЗ 6 50 км 6/6 1500 м
[Sc]
+3.4 -2.7 64 -2 -2 по сезону 1015.4 986.8
ЮЗ 6 50 км 3/3 1500 м
[Sc]
+2.8 -2.9 66 -3 -3 тепло 1015.9 987.2
ЮЗ 7 50 км 1/1 1500 м
[Sc]
+2.8 -2.7 67 -3 -3 тепло 1016.3 987.6
ЮЗ 6 50 км 3/3 1500 м
[Sc]
+2.7 -2.4 69 -3 -3 по сезону 1016.8 988.1
З 6 50 км 1/1 1080 м
[Sc]
+2.3 -2.3 72 -3 -3 тепло 1017.1 988.3
ЮЗ 8 50 км 1/1 1500 м
[Sc]
+2.3 -2.4 71 -4 -4 тепло 1017.2 988.4
ЮЗ 6 50 км 1/1 1500 м
[Sc]
+1.9 -2.7 72 -4 -4 по сезону 1017.4 988.6
ЮЗ 6 50 км 1/1 1500 м
[Sc]
+1.9 -2.8 71 -4 -4 тепло 1017.1 988.3
ЮЗ 4 50 км 1/1 1500 м
[Sc Ci fib]
+1.3 -3.2 72 -4 -4 тепло 1017.3 988.4
Ю 4 50 км 3/0
[Ci]
+0.8 -3.5 73 -4 -4 по сезону 1017.5 988.6 +0.1 +4.1
Ю 5 50 км 1/0
[Ac trans Ci sp]
+1.1 -3.4 72 -4 -4 тепло 1017.7 988.8
Ю 5 50 км 1/0
[Ci sp]
+2.1 -3.4 67 -3 -2 тепло 1017.2 988.4
Ю 5 50 км 6/0
[Cs]
+3.7 -3.3 60 -1 0 по сезону 1016.0 987.4
Ю 5 50 км 9/0
[Cs]
+4.8 -3.3 56 +1 +2 тепло 1015.3 986.8
Ю 4 50 км 10/0
[Cs]
+5.6 -3.3 53 +2 +5 тепло 1014.0 985.7
ЮВ 6 50 км 10/0
[As trans]
+4.4 -2.6 60 -0 0 по сезону 1012.8 984.4
ЮВ 7 50 км 10/0
[As op]
+4.6 -1.9 63 -1 -0 тепло 1011.3 982.9
ЮВ 8 50 км 10/0
[As op]
+5.0 -1.8 61 -0 -0 тепло 1009.6 981.3
ЮВ 7 45 км 10/5 1380 м
[Sc As op]
+5.2 -1.6 61 0 0 по сезону 1008.2 980.0
ЮВ 6 45 км 10/8 1300 м
[Sc As op]
+5.1 -1.7 61 0 0 тепло 1007.3 979.1
Ю 10 12 км слаб. дождь 10/9 330 м
[Sc]
+3.8 -0.1 76 -3 -3 тепло 1006.7 978.4
ЮВ 8 30 км слаб. дождь 10/9 600 м
[Sc]
+3.9 -0.3 74 -2 -2 по сезону 1005.4 977.1 +0.3 +5.8 0.1
Ю 8 45 км в посл. час дождь 10/6 1350 м
[Sc As op]
+3.7 +0.2 78 -3 -3 тепло 1004.0 975.8
Ю 8 50 км 10/6 2000 м
[Sc As op]
+3.9 +0.5 78 -2 -2 тепло 1003.7 975.5
Ю 6 50 км {дождь} 9/6 1020 м
[Sc As op]
+4.3 +0.8 78 -1 -1 по сезону 1003.9 975.7 0.0
Ю 6 40 км слаб. дождь 10/9 800 м
[Sc]
+4.3 +1.7 83 -1 -1 тепло 1004.4 976.2
Ю 4 50 км в посл. час дождь 9/9 1080 м
[Sc]
+3.8 +2.0 88 -1 -1 тепло 1004.8 976.6
ЮЗ 4 50 км {дождь} 10/9 600 м
[Sc]
+4.0 +1.7 85 -0 -0 по сезону 1005.5 977.3 0.0
ЮЗ 5 50 км 9/9 870 м
[Sc]
+4.6 +1.4 80 -0 -0 тепло 1006.2 978.0
З 3 50 км 9/9 960 м
[Sc]
+4.4 +1.2 80 +1 +1 тепло 1006.8 978.6
З 4 50 км 9/9 960 м
[Sc]
+4.0 +0.9 80 -0 -0 тепло 1007.6 979.3
З 4 50 км 9/9 1050 м
[Sc]
+4.4 +1.1 79 0 0 тепло 1008.7 980.4
З 6 50 км 9/9 720 м
[Sc]
+4.7 +1.4 79 -0 -0 тепло 1010.2 981.9
З 4 40 км 9/9 600 м
[Sc]
+4.2 +1.9 85 -0 -0 тепло 1011.1 982.7 +3.6 +4.8 0.0
З 5 35 км 6/6 1320 м
[Sc]
+4.1 +1.7 84 -1 -1 тепло 1012.3 983.9
З 5 35 км слаб. дождь 9/9 450 м
[Sc]
+4.7 +2.0 83 0 0 тепло 1013.9 985.5
З 6 9000 м дождь 10/9 200 м
[Frnb]
+4.6 +2.9 89 -1 -1 по сезону 1015.0 986.6 0.0
З 5 9000 м слаб. дождь 10/8 210 м
[Frnb As op]
+4.6 +3.5 93 -0 -0 тепло 1016.1 987.6
З 6 16 км в посл. час дождь 10/9 240 м
[Cu Sc]
+5.6 +3.8 88 +1 +1 тепло 1017.0 988.6
З 5 20 км в посл. час дождь 10/9 330 м
[Cu Sc]
+6.0 +3.6 85 +2 +2 по сезону 1018.0 989.6 0.9
З 6 25 км 10/9 450 м
[Cu Sc]
+6.5 +3.7 82 +2 +2 тепло 1018.7 990.4
З 6 25 км 9/9 540 м
[Cu Sc]
+6.8 +3.0 77 +2 +3 тепло 1019.6 991.3
З 4 30 км в посл. час дождь 9/9 570 м
[Cu Sc]
+6.6 +2.7 76 +3 +3 тепло 1020.5 992.1 0.0
З 3 25 км в посл. час ливневой дождь 10/9 450 м
[Cu Sc]
+5.9 +1.8 75 +3 +3 тепло 1021.4 992.9
З 4 30 км 9/9 1020 м
[Sc]
+5.5 +2.2 79 +2 +2 тепло 1022.1 993.6
З 2 40 км {ливн. осадки, дождь} 9/9 600 м
[Cu Sc]
+5.2 +2.4 82 +3 +3 тепло 1023.4 994.8 +4.0 +6.9 0.9
З 3 40 км 9/9 800 м
[Cu Sc]
+5.3 +2.5 82 +2 +2 тепло 1024.2 995.6
З 4 35 км 9/9 870 м
[Cu Sc]
+5.3 +2.6 83 +1 +1 тепло 1024.8 996.2
З 3 35 км в посл. час дождь 9/9 750 м
[Cu Sc]
+4.8 +2.9 87 +1 +1 тепло 1025.5 996.8 0.0
ЮЗ 3 30 км 9/9 630 м
[Cu Sc]
+4.6 +2.6 87 +1 +1 тепло 1025.8 997.1
З 3 26 км 9/9 630 м
[Cu Sc]
+5.0 +2.7 85 +2 +2 тепло 1026.2 997.5
ЮЗ 3 26 км {дождь} 9/9 600 м
[Sc]
+4.6 +2.3 85 +1 +1 тепло 1026.7 997.9 0.0
ЮЗ 3 26 км 8/5 1350 м
[Sc Ci sp]
+4.0 +1.4 83 0 0 тепло 1026.8 998.0
ЮЗ 3 26 км 8/5 1440 м
[Sc Ci sp]
+4.0 +1.5 84 0 0 тепло 1026.8 998.0
Ю 3 29 км 8/4 1440 м
[Sc Ci sp]
+3.0 +0.7 85 -1 -1 по сезону 1026.7 997.8
Ю 4 28 км 6/0
[Ci sp]
+2.9 +0.8 86 -2 -2 тепло 1026.3 997.4
Ю 4 29 км 8/0
[Ci sp]
+2.2 +0.6 89 -3 -3 тепло 1026.0 997.0
Ю 4 20 км 8/0
[Ci sp]
+1.7 +0.1 89 -3 -3 по сезону 1025.8 996.7 +1.6 +5.4 0.0
Ю 4 45 км 9/0
[Ci sp]
+2.2 -0.2 84 -3 -3 тепло 1025.6 996.6
Ю 5 40 км 9/0
[Ci sp]
+3.1 +0.8 85 -2 -1 тепло 1025.5 996.6
Ю 5 35 км 9/0
[Ci sp]
+5.1 +0.8 74 +1 +2 тепло 1025.3 996.6
Ю 6 40 км 9/0
[Ci sp]
+6.4 +1.1 69 +2 +3 тепло 1025.0 996.5
Ю 5 35 км 9/0
[As op Ci sp]
+7.8 +1.3 63 +4 +6 тепло 1024.3 995.9
Ю 5 35 км 9/0
[As op Ci sp]
+8.9 +1.3 59 +6 +7 тепло 1023.6 995.3
Ю 7 30 км 9/0
[As op Ci sp]
+9.3 +1.4 58 +6 +6 тепло 1022.4 994.2
Ю 7 35 км 9/0
[Ci sp]
+8.0 +1.1 62 +4 +4 тепло 1022.1 993.8
Ю 6 35 км 9/0
[As op Ci sp]
+7.0 +1.7 69 +3 +3 тепло 1021.9 993.5
Ю 4 30 км 9/0
[As op Ci sp]
+7.0 +2.2 71 +4 +4 тепло 1021.4 993.0
Ю 5 25 км 8/0
[As op Ci sp]
+6.4 +2.1 74 +2 +2 тепло 1021.4 993.0
Ю 4 35 км 4/0
[Ci sp]
+5.5 +1.8 77 +2 +2 тепло 1021.8 993.3 +1.7 +9.8
Ю 6 35 км 4/0
[Ci sp]
+5.3 +1.8 78 0 0 тепло 1020.7 992.2
Ю 8 35 км 3/0
[Ci sp]
+6.9 +1.8 70 +2 +2 тепло 1019.7 991.4
Ю 7 35 км 5/0
[Ci]
+7.6 +1.6 66 +3 +3 тепло 1019.3 991.0
Ю 8 35 км 8/0
[Cs]
+7.1 +1.5 68 +2 +2 тепло 1018.7 990.4
Ю 10 35 км 9/0
[Cs]
+7.5 +1.0 63 +2 +2 тепло 1017.7 989.5
Ю 9 40 км 10/0
[As op Cs]
+7.9 +0.6 60 +3 +3 тепло 1018.0 989.8
Ю 8 45 км 10/0
[As op]
+7.8 +0.5 60 +3 +3 тепло 1017.6 989.4
Ю 8 45 км 10/0
[As op]
+7.9 +0.4 59 +4 +4 тепло 1017.1 988.9
Ю 8 45 км 10/0
[As op]
+8.0 +0.6 60 +4 +4 тепло 1015.9 987.8
ЮВ 8 45 км 10/0
[Ac As Cs]
+7.4 +0.5 62 +3 +3 тепло 1015.7 987.5
Ю 8 40 км 9/0
[Cs]
+6.9 +0.6 64 +2 +2 тепло 1016.1 987.8
Ю 8 35 км 8/0
[Ci sp]
+7.0 +0.6 64 +2 +2 тепло 1015.9 987.7 +5.1 +8.6
Ю 9 45 км 9/0
[Ci sp]
+7.5 +0.7 62 +3 +3 тепло 1015.4 987.2
Ю 8 45 км 10/0
[As op]
+8.8 +0.6 56 +5 +5 тепло 1015.4 987.4
Ю 7 45 км 10/0
[As op]
+10.2 +0.9 52 +7 +7 тепло 1014.9 987.0
Ю 9 55 км 10/0
[As op]
+12.1 +0.9 46 +9 +9 тепло 1014.0 986.3
Ю 7 65 км 10/0
[As op]
+11.8 +1.1 48 +9 +9 тепло 1014.1 986.4
Ю 9 60 км в посл. час дождь 10/0
[As op]
+11.3 +1.0 49 +8 +8 тепло 1013.3 985.6 0.0
Ю 9 55 км в посл. час дождь 10/0
[Ac As]
+10.7 +2.0 55 +7 +7 тепло 1012.4 984.6
Ю 9 50 км в посл. час дождь 10/3 1020 м
[Cu hum As op]
+12.3 +2.5 51 +9 +9 тепло 1011.0 983.4
Ю 9 50 км {дождь} 10/0
[As op]
+12.8 +2.5 49 +10 +10 тепло 1010.4 982.9 0.1
Ю 8 60 км 9/0
[As op Ci sp]
+14.0 +1.6 43 +12 +12 тепло 1009.7 982.3
Ю 9 55 км 10/0
[As op]
+15.4 0.0 35 +14 +14 тепло 1009.0 981.8
Ю 9 60 км {дождь} 10/0
[As op Cs]
+15.4 -0.5 34 +14 +14 тепло 1008.9 981.7 +6.7 +15.7 0.1
Ю 8 60 км 10/0
[Cs]
+15.1 -0.7 34 +13 +13 тепло 1008.8 981.5
Ю 8 60 км 10/0
[Cs]
+14.5 -1.1 34 +13 +13 тепло 1008.0 980.7
ЮВ 8 60 км 9/0
[Cs]
+15.8 -1.8 30 +14 +14 тепло 1007.3 980.1
Ю 7 65 км 10/0
[Cs]
+14.2 -1.6 34 +12 +12 тепло 1007.4 980.1
Ю 6 65 км 10/0
[As op Cs]
+14.2 -1.3 34 +13 +13 тепло 1007.5 980.2
Местоположение метеостанции Дрезден (Германия): широта 51.13 долгота 13.78 высота над уровнем моря 226 м.
В архиве по умолчанию представлена погода в Дрездене за последнюю неделю. Архивные данные за месяц целиком и за предыдущие месяцы, начиная с января 2011 года, Вы можете получить, выбрав интересующий диапазон дат из раскрывающегося списка и нажав кнопку "Найти!".
*Определитесь, кто Вы:
Внимание! Время в таблицах - всемирное. Для получения местного времени необходимо прибавить поправку, которая равна 1 ч.
Смотрите также архив погоды в соседних городах и на ближайших метеорологических станциях:
Партнеры нашего сайта:      
Пояснения к столбцам:
  • Ветер - указаны скорость ветра в м/с - средняя за 10 мин, порывы в срок и между сроками (в фигурных скобках) и направление, откуда дует ветер: С - северный,
  • СВ - северо-восточный, В - восточный, ЮВ - юго-восточный, Ю - южный, ЮЗ - юго-западный, З - западный, СЗ - северо-западный.
  • Видимость - горизонтальная дальность видимости в метрах или километрах. При видимости от 1 до 10 км при отсутствии осадков обычно наблюдается дымка, при ухудшении видимости до 1 км и менее - туман. В сухую погоду видимость может ухудшаться дымом, пылью или мглою.
  • Явления - указаны атмосферные явления, наблюдавшиеся в срок или в последний час перед сроком; фигурными скобками обозначены явления, наблюдавшиеся между сроками (за 1-3 часа до срока); квадратными скобками обозначены град или гололедные отложения с указанием их диаметра в мм.
  • Облачность - указаны через наклонную черту общая и нижняя облачность в баллах и высота нижней границы облаков в метрах; квадратными скобками обозначены формы облаков: Ci - перистые, Cs - перисто-слоистые, Cc - перисто-кучевые, Ac - высококучевые, As - высокослоистые, Sc - слоисто-кучевые, Ns - слоисто-дождевые, Cu - кучевые, Cb - кучево-дождевые. Подробнее классификацию облаков см. в Атласе облаков (PDF).
  • T - Температура воздуха - температура, измеренная на высоте 2 м над землей.
  • Td - Температура точки росы - температура, при понижении до которой содержащийся в воздухе водяной пар достигнет насыщения.
  • f - Относительная влажность воздуха - влажноcть воздуха, измеренная на высоте 2 м над землей.
  • Te - Эффективная температура - температура, которую ощущает одетый по сезону человек в тени. Характеристика душности погоды. При расчете учитывается влияние влажности воздуха и скорости ветра на теплоощущения человека.
  • Tes - Эффективная температура на солнце - температура, которую ощущает человек, с поправкой на солнечный нагрев. Характеристика знойности погоды. Зависит от высоты солнца над горизонтом, облачности и скорости ветра. Ночью, в пасмурную погоду, а также при ветре 12 м/с и более поправка равна нулю.
  • P - Атмосферное давление - приведенное к уровню моря атмосферное давление.
  • Po - Атмосферное давление - измеренное на уровне метеостанции атмосферное давление.
  • Tmin - Минимальная температура - минимум температуры воздуха на высоте 2 м над землей.
  • Tmax - Максимальная температура - максимум температуры воздуха на высоте 2 м над землей.
  • R - Количество осадков - Количество выпавших осадков за период времени, мм. При наведении курсора мыши на число - период времени, за который выпало указанное количество осадков.
  • R24 - Количество осадков - Количество выпавших осадков за 24 часа, мм.
  • S - Снежный покров - Высота снежного покрова, см. При наведении курсора мыши на число - состояние снежного покрова и степень покрытия местности в баллах.